Regional Weather Roundup
Issued by NWS

Home | Current Version | Previous Version | Graphics & Text | Print | Product List | Glossary On
Versions: 1 2 3 4 5 6 7 8 9 10 11 12 13 14 15 16 17 18 19 20 21 22 23 24 25 26 27 28 29 30 31 32 33 34 35 36 37 38 39 40 41 42 43 44 45 46 47 48 49 50
000
ASUS43 KFSD 272010
RWRSD

WEATHER ROUNDUP FOR SOUTH DAKOTA
NATIONAL WEATHER SERVICE SIOUX FALLS SD
300 PM CDT FRI MAR 27 2015

NOTE: "FAIR" INDICATES FEW OR NO CLOUDS BELOW 12,000 FEET WITH NO
SIGNIFICANT WEATHER AND/OR OBSTRUCTIONS TO VISIBILITY.


SDZ001>005-009-010-012>017-272100-
NORTHWEST AND NORTH CENTRAL SOUTH DAKOTA

CITY           SKY/WX    TMP DP  RH WIND       PRES   REMARKS
BUFFALO          N/A     65  34  31 NW20G30   29.86F
FAITH            N/A     67  34  29 NW23G33   29.88F
MOBRIDGE       CLOUDY    41  32  70 S17       29.94F
$$

SDZ012>016-024>037-041>051-057-063-072>074-272100-
SOUTHWEST AND SOUTH CENTRAL SOUTH DAKOTA

CITY           SKY/WX    TMP DP  RH WIND       PRES   REMARKS
RAPID CTY ARPT PTSUNNY   68  36  30 NW26G36   29.94F
PIERRE         MOSUNNY   46  34  62 S16       29.96F
CUSTER         MOSUNNY   58  33  39 NW8G25    30.02F
ELLSWORTH AFB  PTSUNNY   66  38  35 NW26      29.93F
PHILIP         PTSUNNY   65  35  33 NW16      29.91F
PINE RIDGE     PTSUNNY   67  36  31 W21G29    29.95F
SPEARFISH      FAIR      63  37  39 NW21G31   29.99F
WINNER         FAIR      49  31  49 S17G24    29.97F
$$

SDZ004>011-016>023-039-040-272100-
NORTHEAST SOUTH DAKOTA

CITY           SKY/WX    TMP DP  RH WIND       PRES   REMARKS
ABERDEEN       LGT SNOW  30  25  81 S13       30.07F WCI  20
WATERTOWN      CLOUDY    34  14  43 S10       30.08F WCI  26
SISSETON         N/A     36   9  32 S8G17     30.09F
$$

SDZ017-020-022-023-036>040-048>070-272100-
SOUTHEAST SOUTH DAKOTA

CITY           SKY/WX    TMP DP  RH WIND       PRES   REMARKS
SIOUX FALLS    CLOUDY    35   9  33 S7        30.12F WCI  29
HURON          LGT SNOW  31  26  82 S13       30.09F WCI  21
CHAMBERLAIN    CLOUDY    38  31  76 S17G23    30.02F
MITCHELL       CLOUDY    34  25  69 S13       30.11F WCI  25
YANKTON        CLOUDY    37  19  48 S12G18    30.15F
$$

ABBREVIATIONS USED IN REMARKS
   TC - TEMPERATURE IN CELSIUS
  WCI - WIND CHILL INDEX
   HX - HEAT INDEX
  VSB - VISIBILITY



USA.gov is the U.S. government's official web portal to all federal, state and local government web resources and services.